KLM274 EGLC-EGPH

Flight info

Callsign KLM274
Flight time 0h 52m
Altitude 32000
Route BPK UN601 RIBEL DCT INPIP
Aircraft A21N/M-SDE2E3FGHIRWXY/LB1

Departure

Time 2026-04-21 08:16
Airport London City Airport (EGLC)

Arrival

Time 2026-04-21 09:08
Airport Edinburgh Airport (EGPH)
Time Latitude Longitude Altitude Speed Heading
2026-04-21 08:03 51.50413 0.05087 28 ft 0 kts 184°
2026-04-21 08:08 51.50424 0.05088 26 ft 4 kts 189°
2026-04-21 08:09 51.50446 0.05102 27 ft 4 kts 233°
2026-04-21 08:09 51.50452 0.05125 27 ft 0 kts 272°
2026-04-21 08:13 51.50452 0.05118 27 ft 4 kts 272°
2026-04-21 08:13 51.50464 0.04993 28 ft 14 kts 278°
2026-04-21 08:14 51.50466 0.04860 30 ft 10 kts 270°
2026-04-21 08:14 51.50467 0.04760 30 ft 8 kts 272°
2026-04-21 08:14 51.50470 0.04664 28 ft 10 kts 273°
2026-04-21 08:14 51.50478 0.04508 28 ft 13 kts 281°
2026-04-21 08:15 51.50536 0.04446 26 ft 10 kts 15°
2026-04-21 08:15 51.50554 0.04525 28 ft 11 kts 88°
2026-04-21 08:15 51.50538 0.05071 31 ft 93 kts 93°
2026-04-21 08:15 51.50479 0.06511 140 ft 152 kts 92°
2026-04-21 08:16 51.50419 0.08203 1076 ft 152 kts 89°
2026-04-21 08:16 51.50416 0.09936 1915 ft 163 kts 77°
2026-04-21 08:16 51.51091 0.11425 2307 ft 178 kts 32°
2026-04-21 08:16 51.52362 0.11590 2633 ft 200 kts 348°
2026-04-21 08:17 51.53641 0.10594 2983 ft 207 kts 337°
2026-04-21 08:17 51.54893 0.09426 3008 ft 208 kts 335°
2026-04-21 08:17 51.56134 0.08220 3011 ft 209 kts 334°
2026-04-21 08:17 51.57378 0.07014 3008 ft 209 kts 334°
2026-04-21 08:18 51.58628 0.05804 3013 ft 215 kts 334°
2026-04-21 08:18 51.59942 0.04494 3006 ft 231 kts 333°
2026-04-21 08:18 51.61387 0.03043 2975 ft 256 kts 332°
2026-04-21 08:18 51.62911 0.01503 3009 ft 261 kts 332°
2026-04-21 08:19 51.64447 -0.00056 3010 ft 261 kts 332°
2026-04-21 08:19 51.65982 -0.01611 3071 ft 261 kts 332°
2026-04-21 08:19 51.67512 -0.03163 3071 ft 259 kts 333°
2026-04-21 08:19 51.69036 -0.04701 3076 ft 258 kts 333°
2026-04-21 08:20 51.70560 -0.06232 3079 ft 258 kts 333°
2026-04-21 08:20 51.72086 -0.07767 3081 ft 258 kts 333°
2026-04-21 08:20 51.73608 -0.09297 3084 ft 258 kts 333°
2026-04-21 08:20 51.75132 -0.10828 3087 ft 259 kts 333°
2026-04-21 08:21 51.76700 -0.12353 3675 ft 263 kts 334°
2026-04-21 08:21 51.78275 -0.13851 4595 ft 264 kts 334°
2026-04-21 08:21 51.79873 -0.15356 5432 ft 267 kts 334°
2026-04-21 08:21 51.81469 -0.16857 6187 ft 272 kts 334°
2026-04-21 08:22 51.83118 -0.18415 6856 ft 277 kts 333°
2026-04-21 08:22 51.84791 -0.20006 7571 ft 281 kts 333°
2026-04-21 08:22 51.86486 -0.21622 8297 ft 285 kts 333°
2026-04-21 08:22 51.88201 -0.23259 9026 ft 288 kts 333°
2026-04-21 08:23 51.89941 -0.24920 9761 ft 292 kts 333°
2026-04-21 08:23 51.95327 -0.30062 10852 ft 337 kts 333°
2026-04-21 08:24 51.97409 -0.32047 11002 ft 357 kts 332°
2026-04-21 08:24 51.99574 -0.34121 11481 ft 365 kts 332°
2026-04-21 08:24 52.01770 -0.36238 12111 ft 368 kts 332°
2026-04-21 08:24 52.03976 -0.38373 12821 ft 371 kts 332°
2026-04-21 08:25 52.06206 -0.40538 13475 ft 375 kts 332°
2026-04-21 08:25 52.08454 -0.42718 14122 ft 378 kts 332°
2026-04-21 08:25 52.10726 -0.44913 14720 ft 380 kts 332°
2026-04-21 08:25 52.13012 -0.47121 15275 ft 384 kts 332°
2026-04-21 08:26 52.15317 -0.49352 15848 ft 387 kts 332°
2026-04-21 08:26 52.17642 -0.51603 16390 ft 390 kts 332°
2026-04-21 08:26 52.19981 -0.53871 16957 ft 393 kts 332°
2026-04-21 08:26 52.22336 -0.56160 17492 ft 396 kts 331°
2026-04-21 08:27 52.24705 -0.58464 18044 ft 398 kts 332°
2026-04-21 08:27 52.27096 -0.60787 18545 ft 401 kts 332°
2026-04-21 08:27 52.29508 -0.63135 18936 ft 407 kts 332°
2026-04-21 08:27 52.31960 -0.65527 19258 ft 413 kts 331°
2026-04-21 08:28 52.34435 -0.67951 19681 ft 417 kts 331°
2026-04-21 08:28 52.36921 -0.70392 20203 ft 417 kts 330°
2026-04-21 08:28 52.39419 -0.72848 20663 ft 420 kts 330°
2026-04-21 08:28 52.41923 -0.75315 21145 ft 422 kts 331°
2026-04-21 08:29 52.44449 -0.77804 21610 ft 424 kts 330°
2026-04-21 08:29 52.46972 -0.80290 22158 ft 424 kts 330°
2026-04-21 08:29 52.49501 -0.82780 22696 ft 424 kts 330°
2026-04-21 08:29 52.52031 -0.85271 23198 ft 425 kts 330°
2026-04-21 08:30 52.54553 -0.87759 23447 ft 432 kts 331°
2026-04-21 08:30 52.57184 -0.90365 23711 ft 439 kts 331°
2026-04-21 08:30 52.59803 -0.92968 24088 ft 441 kts 330°
2026-04-21 08:30 52.62407 -0.95557 24431 ft 442 kts 330°
2026-04-21 08:31 52.65037 -0.98170 24913 ft 441 kts 329°
2026-04-21 08:31 52.67656 -1.00774 25361 ft 439 kts 329°
2026-04-21 08:31 52.70242 -1.03352 26129 ft 430 kts 328°
2026-04-21 08:31 52.72789 -1.05897 26648 ft 427 kts 328°
2026-04-21 08:32 52.75330 -1.08440 27091 ft 427 kts 327°
2026-04-21 08:32 52.77879 -1.10994 27376 ft 431 kts 328°
2026-04-21 08:32 52.80449 -1.13573 27605 ft 434 kts 328°
2026-04-21 08:32 52.83039 -1.16176 27888 ft 437 kts 327°
2026-04-21 08:33 52.85634 -1.18786 28249 ft 437 kts 328°
2026-04-21 08:33 52.88241 -1.21410 28552 ft 439 kts 327°
2026-04-21 08:33 52.90859 -1.24046 28860 ft 441 kts 327°
2026-04-21 08:33 52.93476 -1.26685 29254 ft 439 kts 327°
2026-04-21 08:34 52.96076 -1.29314 29740 ft 436 kts 327°
2026-04-21 08:34 52.98656 -1.31925 30240 ft 433 kts 327°
2026-04-21 08:34 53.01215 -1.34523 30667 ft 431 kts 327°
2026-04-21 08:34 53.03775 -1.37127 30878 ft 433 kts 327°
2026-04-21 08:35 53.06346 -1.39744 31139 ft 434 kts 327°
2026-04-21 08:35 53.08921 -1.42361 31436 ft 434 kts 327°
2026-04-21 08:35 53.11499 -1.44984 31742 ft 433 kts 327°
2026-04-21 08:35 53.14068 -1.47608 32055 ft 433 kts 327°
2026-04-21 08:36 53.16630 -1.50230 32343 ft 433 kts 327°
2026-04-21 08:36 53.21715 -1.55451 32426 ft 423 kts 326°
2026-04-21 08:37 53.26708 -1.60601 32428 ft 424 kts 327°
2026-04-21 08:37 53.31744 -1.65788 32431 ft 426 kts 327°
2026-04-21 08:38 53.36785 -1.70980 32436 ft 426 kts 327°
2026-04-21 08:38 53.41822 -1.76199 32436 ft 425 kts 327°
2026-04-21 08:39 53.46845 -1.81432 32427 ft 425 kts 327°
2026-04-21 08:39 53.51869 -1.86668 32425 ft 425 kts 327°
2026-04-21 08:40 53.56892 -1.91911 32432 ft 425 kts 327°
2026-04-21 08:40 53.61918 -1.97174 32428 ft 425 kts 327°
2026-04-21 08:41 53.66929 -2.02450 32428 ft 425 kts 326°
2026-04-21 08:41 53.71935 -2.07739 32434 ft 425 kts 326°
2026-04-21 08:42 53.77215 -2.12261 32428 ft 428 kts 336°
2026-04-21 08:42 53.82745 -2.16011 32427 ft 429 kts 336°
2026-04-21 08:43 53.88245 -2.19773 32429 ft 429 kts 336°
2026-04-21 08:43 53.93783 -2.23564 32434 ft 429 kts 336°
2026-04-21 08:44 53.99316 -2.27374 32443 ft 429 kts 335°
2026-04-21 08:44 54.04861 -2.31205 32432 ft 430 kts 336°
2026-04-21 08:45 54.10416 -2.35039 32441 ft 431 kts 336°
2026-04-21 08:45 54.15983 -2.38900 32444 ft 432 kts 335°
2026-04-21 08:46 54.21545 -2.42764 32462 ft 432 kts 336°
2026-04-21 08:46 54.27127 -2.46653 32442 ft 435 kts 337°
2026-04-21 08:47 54.32742 -2.50581 32443 ft 437 kts 337°
2026-04-21 08:47 54.38388 -2.54536 32449 ft 439 kts 336°
2026-04-21 08:48 54.44051 -2.58518 32455 ft 440 kts 336°
2026-04-21 08:48 54.49718 -2.62518 32454 ft 441 kts 338°
2026-04-21 08:49 54.55420 -2.66553 32454 ft 444 kts 338°
2026-04-21 08:49 54.61140 -2.70612 32462 ft 445 kts 336°
2026-04-21 08:50 54.66893 -2.74706 32465 ft 448 kts 337°
2026-04-21 08:50 54.72671 -2.78842 32465 ft 449 kts 337°
2026-04-21 08:50 54.75553 -2.80911 31571 ft 454 kts 338°
2026-04-21 08:51 54.78536 -2.83048 30047 ft 472 kts 339°
2026-04-21 08:51 54.81601 -2.85242 28718 ft 481 kts 339°
2026-04-21 08:51 54.84715 -2.87478 27683 ft 484 kts 339°
2026-04-21 08:51 54.87819 -2.89714 26924 ft 481 kts 339°
2026-04-21 08:52 54.90892 -2.91935 26221 ft 478 kts 339°
2026-04-21 08:52 54.93953 -2.94153 25527 ft 475 kts 339°
2026-04-21 08:52 54.96993 -2.96359 24838 ft 472 kts 340°
2026-04-21 08:52 55.00020 -2.98555 24178 ft 468 kts 340°
2026-04-21 08:53 55.03016 -3.00730 23449 ft 465 kts 340°
2026-04-21 08:53 55.05983 -3.02886 22757 ft 460 kts 340°
2026-04-21 08:53 55.08922 -3.05029 22087 ft 456 kts 340°
2026-04-21 08:53 55.11799 -3.07131 21435 ft 451 kts 340°
2026-04-21 08:54 55.14682 -3.09244 20795 ft 447 kts 340°
2026-04-21 08:54 55.17539 -3.11340 20263 ft 441 kts 340°
2026-04-21 08:54 55.20312 -3.13375 20117 ft 425 kts 340°
2026-04-21 08:54 55.22990 -3.15343 19987 ft 409 kts 340°
2026-04-21 08:55 55.25561 -3.17239 19850 ft 394 kts 340°
2026-04-21 08:55 55.28048 -3.19074 19728 ft 381 kts 340°
2026-04-21 08:55 55.30425 -3.20977 19602 ft 371 kts 333°
2026-04-21 08:55 55.32624 -3.23208 19481 ft 360 kts 333°
2026-04-21 08:56 55.34765 -3.25402 19193 ft 354 kts 332°
2026-04-21 08:56 55.36883 -3.27578 18829 ft 351 kts 332°
2026-04-21 08:56 55.38985 -3.29739 18407 ft 349 kts 332°
2026-04-21 08:56 55.41074 -3.31890 17968 ft 347 kts 332°
2026-04-21 08:57 55.43154 -3.34035 17527 ft 346 kts 332°
2026-04-21 08:57 55.45224 -3.36174 17113 ft 344 kts 332°
2026-04-21 08:57 55.47281 -3.38305 16724 ft 342 kts 332°
2026-04-21 08:57 55.49328 -3.40427 16333 ft 340 kts 333°
2026-04-21 08:58 55.51361 -3.42533 15956 ft 338 kts 333°
2026-04-21 08:58 55.53381 -3.44626 15591 ft 336 kts 333°
2026-04-21 08:58 55.55388 -3.46711 15227 ft 334 kts 333°
2026-04-21 08:58 55.57382 -3.48788 14887 ft 332 kts 333°
2026-04-21 08:59 55.59391 -3.50880 14123 ft 343 kts 333°
2026-04-21 08:59 55.61493 -3.53058 13127 ft 358 kts 333°
2026-04-21 08:59 55.63681 -3.55344 12120 ft 373 kts 330°
2026-04-21 08:59 55.65790 -3.58148 11079 ft 381 kts 322°
2026-04-21 09:00 55.67765 -3.61183 10039 ft 372 kts 319°
2026-04-21 09:00 55.69633 -3.64261 9005 ft 362 kts 319°
2026-04-21 09:00 55.71476 -3.67213 8012 ft 352 kts 321°
2026-04-21 09:00 55.73297 -3.69992 7322 ft 336 kts 323°
2026-04-21 09:01 55.75034 -3.72551 6896 ft 314 kts 324°
2026-04-21 09:01 55.76623 -3.75038 6473 ft 295 kts 320°
2026-04-21 09:01 55.78157 -3.77219 6114 ft 269 kts 339°
2026-04-21 09:01 55.79852 -3.77836 5818 ft 234 kts 14°
2026-04-21 09:02 55.81251 -3.76836 5466 ft 210 kts 44°
2026-04-21 09:02 55.82167 -3.74907 4950 ft 198 kts 63°
2026-04-21 09:02 55.82862 -3.72827 4558 ft 194 kts 61°
2026-04-21 09:03 55.84260 -3.68711 4089 ft 195 kts 62°
2026-04-21 09:03 55.84962 -3.66653 3856 ft 193 kts 61°
2026-04-21 09:03 55.85659 -3.64621 3591 ft 192 kts 61°
2026-04-21 09:03 55.86354 -3.62593 3328 ft 192 kts 61°
2026-04-21 09:04 55.87028 -3.60628 3073 ft 177 kts 60°
2026-04-21 09:04 55.87641 -3.58842 2827 ft 162 kts 61°
2026-04-21 09:04 55.88204 -3.57195 2613 ft 149 kts 60°
2026-04-21 09:04 55.88717 -3.55697 2432 ft 137 kts 60°
2026-04-21 09:05 55.89203 -3.54275 2230 ft 133 kts 61°
2026-04-21 09:05 55.89520 -3.53345 2100 ft 132 kts 60°
2026-04-21 09:05 55.89994 -3.51957 1916 ft 131 kts 60°
2026-04-21 09:05 55.90468 -3.50568 1744 ft 130 kts 60°
2026-04-21 09:06 55.90941 -3.49180 1535 ft 132 kts 60°
2026-04-21 09:06 55.91414 -3.47792 1372 ft 129 kts 61°
2026-04-21 09:06 55.91885 -3.46411 1187 ft 130 kts 61°
2026-04-21 09:06 55.92354 -3.45034 987 ft 130 kts 61°
2026-04-21 09:07 55.92823 -3.43644 838 ft 130 kts 59°
2026-04-21 09:07 55.93291 -3.42246 648 ft 130 kts 60°
2026-04-21 09:07 55.93765 -3.40875 437 ft 131 kts 59°
2026-04-21 09:07 55.94234 -3.39488 265 ft 130 kts 60°
2026-04-21 09:08 55.94704 -3.38127 127 ft 127 kts 60°
2026-04-21 09:08 55.95102 -3.36942 114 ft 88 kts 59°
2026-04-21 09:08 55.95253 -3.36475 111 ft 13 kts 72°
2026-04-21 09:08 55.95211 -3.36372 113 ft 8 kts 146°
2026-04-21 09:09 55.95160 -3.36318 114 ft 8 kts 156°
2026-04-21 09:09 55.95113 -3.36347 113 ft 9 kts 219°
2026-04-21 09:09 55.95029 -3.36409 116 ft 15 kts 184°
2026-04-21 09:09 55.94954 -3.36371 115 ft 10 kts 148°
2026-04-21 09:10 55.94945 -3.36361 114 ft 0 kts 149°